Tracking 19242 objects as of 16-Aug-2018
HD Live streaming from Space Station
objects crossing your sky now

BREEZE-M R/B

Track BREEZE-M R/B now!


NORAD ID: 28925
Int'l Code: 2005-052B
Perigee: 6,203.9 km
Apogee: 35,337.6 km
Inclination: 19.4 °
Period: 741.7 minutes
Semi major axis: 27141 km
RCS: 0.6439 m2 (medium)
Launch date: December 29, 2005
Source: Commonwealth of Independent States (former USSR) (CIS)
Launch site: TYURATAM MISSILE AND SPACE COMPLEX (TTMTR)

Note: This is a ROCKET BODY
aabbcc
Your satellite tracking list
Your tracking list is empty




NASA's NSSDC Master Catalog

Two Line Element Set (TLE):
1 28925U 05052B   18227.87286904 -.00000311 +00000-0 +00000-0 0  9998
2 28925 019.3981 307.5618 5366949 295.3027 188.7680 01.94154029089492
Source of the keplerian elements: AFSPC